Time,TemperatureF,DewpointF,PressureIn,WindDirection,WindDirectionDegrees,WindSpeedMPH,WindSpeedGustMPH,Humidity,HourlyPrecipIn,Conditions,Clouds,dailyrainin,SolarRadiationWatts/m^2,SoftwareType,DateUTC
2013-05-14 00:14:00,78.0,70.0,30.07,ENE,64,3.0,-999.0,77,-99.99,,,0.00,0,weatherlink.com 1.10,2013-05-14 04:14:00,
2013-05-14 00:29:00,78.1,70.0,30.07,NE,49,6.0,-999.0,76,-99.99,,,0.00,0,weatherlink.com 1.10,2013-05-14 04:29:00,
2013-05-14 00:44:00,78.1,70.0,30.07,NE,53,4.0,-999.0,75,-99.99,,,0.00,0,weatherlink.com 1.10,2013-05-14 04:44:00,
2013-05-14 00:59:00,78.2,69.0,30.07,NNE,29,2.0,-999.0,74,-99.99,,,0.00,0,weatherlink.com 1.10,2013-05-14 04:59:00,
2013-05-14 01:14:00,78.1,69.0,30.06,ENE,64,3.0,-999.0,74,-99.99,,,0.00,0,weatherlink.com 1.10,2013-05-14 05:14:00,
2013-05-14 01:29:00,78.1,69.0,30.06,NE,43,7.0,-999.0,73,-99.99,,,0.00,0,weatherlink.com 1.10,2013-05-14 05:29:00,
2013-05-14 01:44:00,78.1,68.0,30.06,ENE,64,2.0,-999.0,72,-99.99,,,0.00,0,weatherlink.com 1.10,2013-05-14 05:44:00,
2013-05-14 01:59:00,77.9,69.0,30.06,NE,56,1.0,-999.0,73,-99.99,,,0.00,0,weatherlink.com 1.10,2013-05-14 05:59:00,
2013-05-14 02:14:00,77.7,68.0,30.05,NE,53,0.0,-999.0,73,-99.99,,,0.00,0,weatherlink.com 1.10,2013-05-14 06:14:00,
2013-05-14 02:29:00,77.5,68.0,30.06,NE,45,0.0,-999.0,73,-99.99,,,0.00,0,weatherlink.com 1.10,2013-05-14 06:29:00,
2013-05-14 02:45:00,77.4,68.0,30.05,ENE,74,5.0,-999.0,72,-99.99,,,0.00,0,weatherlink.com 1.10,2013-05-14 06:45:00,
2013-05-14 03:00:00,77.3,68.0,30.05,NE,52,5.0,-999.0,72,-99.99,,,0.00,0,weatherlink.com 1.10,2013-05-14 07:00:00,
2013-05-14 03:15:00,77.3,67.0,30.05,ENE,58,5.0,-999.0,71,-99.99,,,0.00,0,weatherlink.com 1.10,2013-05-14 07:15:00,
2013-05-14 03:30:00,77.2,67.0,30.05,NE,50,8.0,-999.0,71,-99.99,,,0.00,0,weatherlink.com 1.10,2013-05-14 07:30:00,
2013-05-14 03:45:00,77.2,68.0,30.05,East,80,5.0,-999.0,72,-99.99,,,0.00,0,weatherlink.com 1.10,2013-05-14 07:45:00,
2013-05-14 04:00:00,77.0,68.0,30.05,ENE,65,4.0,-999.0,73,-99.99,,,0.00,0,weatherlink.com 1.10,2013-05-14 08:00:00,
2013-05-14 04:15:00,76.9,67.0,30.06,ENE,58,3.0,-999.0,72,-99.99,,,0.00,0,weatherlink.com 1.10,2013-05-14 08:15:00,
2013-05-14 04:30:00,76.9,68.0,30.05,NE,55,2.0,-999.0,73,-99.99,,,0.00,0,weatherlink.com 1.10,2013-05-14 08:30:00,
2013-05-14 04:45:00,76.6,67.0,30.06,ENE,57,6.0,-999.0,72,-99.99,,,0.00,0,weatherlink.com 1.10,2013-05-14 08:45:00,
2013-05-14 05:00:00,76.4,66.0,30.06,NE,55,4.0,-999.0,71,-99.99,,,0.00,0,weatherlink.com 1.10,2013-05-14 09:00:00,
2013-05-14 05:15:00,76.4,66.0,30.06,ENE,62,6.0,-999.0,70,-99.99,,,0.00,0,weatherlink.com 1.10,2013-05-14 09:15:00,
2013-05-14 05:30:00,76.3,66.0,30.07,ENE,61,6.0,-999.0,70,-99.99,,,0.00,0,weatherlink.com 1.10,2013-05-14 09:30:00,
2013-05-14 05:45:00,76.1,65.0,30.07,NE,40,5.0,-999.0,69,-99.99,,,0.00,0,weatherlink.com 1.10,2013-05-14 09:45:00,
2013-05-14 06:00:00,75.7,65.0,30.08,ENE,75,4.0,-999.0,69,-99.99,,,0.00,0,weatherlink.com 1.10,2013-05-14 10:00:00,
2013-05-14 06:15:00,75.6,65.0,30.08,NE,47,4.0,-999.0,69,-99.99,,,0.00,0,weatherlink.com 1.10,2013-05-14 10:15:00,
2013-05-14 06:30:00,75.4,64.0,30.09,NNE,33,3.0,-999.0,68,-99.99,,,0.00,0,weatherlink.com 1.10,2013-05-14 10:30:00,
2013-05-14 06:45:00,75.2,64.0,30.09,NE,53,6.0,-999.0,68,-99.99,,,0.00,11,weatherlink.com 1.10,2013-05-14 10:45:00,
2013-05-14 07:00:00,75.3,64.0,30.09,NE,51,3.0,-999.0,68,-99.99,,,0.00,30,weatherlink.com 1.10,2013-05-14 11:00:00,
2013-05-14 07:15:00,75.4,64.0,30.10,ENE,65,2.0,-999.0,67,-99.99,,,0.00,44,weatherlink.com 1.10,2013-05-14 11:15:00,
2013-05-14 07:30:00,75.4,63.0,30.10,NE,51,6.0,-999.0,66,-99.99,,,0.00,111,weatherlink.com 1.10,2013-05-14 11:30:00,
2013-05-14 07:45:00,75.8,63.0,30.11,ENE,60,3.0,-999.0,65,-99.99,,,0.00,165,weatherlink.com 1.10,2013-05-14 11:45:00,
2013-05-14 08:00:00,76.1,63.0,30.11,NE,55,6.0,-999.0,64,-99.99,,,0.00,213,weatherlink.com 1.10,2013-05-14 12:00:00,
2013-05-14 08:15:00,76.3,63.0,30.12,NE,38,8.0,-999.0,64,-99.99,,,0.00,271,weatherlink.com 1.10,2013-05-14 12:15:00,
2013-05-14 08:30:00,76.8,63.0,30.12,ENE,61,11.0,-999.0,63,-99.99,,,0.00,279,weatherlink.com 1.10,2013-05-14 12:30:00,
2013-05-14 08:45:00,77.4,63.0,30.12,NE,50,5.0,-999.0,61,-99.99,,,0.00,383,weatherlink.com 1.10,2013-05-14 12:45:00,
2013-05-14 09:00:00,77.7,63.0,30.12,NNE,17,8.0,-999.0,61,-99.99,,,0.00,476,weatherlink.com 1.10,2013-05-14 13:00:00,
2013-05-14 09:15:00,77.8,63.0,30.13,NE,34,5.0,-999.0,61,-99.99,,,0.00,489,weatherlink.com 1.10,2013-05-14 13:15:00,
2013-05-14 09:31:00,77.9,63.0,30.13,NNE,24,5.0,-999.0,60,-99.99,,,0.00,559,weatherlink.com 1.10,2013-05-14 13:31:00,
2013-05-14 09:46:00,78.2,63.0,30.13,NNE,27,6.0,-999.0,60,-99.99,,,0.00,652,weatherlink.com 1.10,2013-05-14 13:46:00,
2013-05-14 10:01:00,78.8,63.0,30.14,ENE,63,3.0,-999.0,58,-99.99,,,0.00,638,weatherlink.com 1.10,2013-05-14 14:01:00,
2013-05-14 10:16:00,78.8,62.0,30.14,North,9,4.0,-999.0,57,-99.99,,,0.00,689,weatherlink.com 1.10,2013-05-14 14:16:00,
2013-05-14 10:31:00,78.8,62.0,30.15,NNE,21,7.0,-999.0,56,-99.99,,,0.00,724,weatherlink.com 1.10,2013-05-14 14:31:00,
2013-05-14 10:46:00,79.3,62.0,30.15,ESE,105,8.0,-999.0,56,-99.99,,,0.00,768,weatherlink.com 1.10,2013-05-14 14:46:00,
2013-05-14 11:01:00,79.1,62.0,30.16,NE,50,12.0,-999.0,56,-99.99,,,0.00,800,weatherlink.com 1.10,2013-05-14 15:01:00,
2013-05-14 11:16:00,79.4,62.0,30.16,ENE,63,8.0,-999.0,56,-99.99,,,0.00,861,weatherlink.com 1.10,2013-05-14 15:16:00,
2013-05-14 11:31:00,79.8,62.0,30.16,East,94,21.0,-999.0,55,-99.99,,,0.00,846,weatherlink.com 1.10,2013-05-14 15:31:00,
2013-05-14 11:46:00,80.0,62.0,30.16,NE,36,7.0,-999.0,54,-99.99,,,0.00,882,weatherlink.com 1.10,2013-05-14 15:46:00,
2013-05-14 12:01:00,80.1,61.0,30.16,NE,51,8.0,-999.0,52,-99.99,,,0.00,905,weatherlink.com 1.10,2013-05-14 16:01:00,
2013-05-14 12:16:00,80.3,61.0,30.16,ENE,60,11.0,-999.0,52,-99.99,,,0.00,930,weatherlink.com 1.10,2013-05-14 16:16:00,
2013-05-14 12:46:00,80.3,61.0,30.16,NE,55,8.0,-999.0,52,-99.99,,,0.00,951,weatherlink.com 1.10,2013-05-14 16:46:00,
2013-05-14 13:01:00,80.4,61.0,30.16,East,82,10.0,-999.0,52,-99.99,,,0.00,953,weatherlink.com 1.10,2013-05-14 17:01:00,
2013-05-14 13:16:00,80.9,61.0,30.16,North,360,4.0,-999.0,51,-99.99,,,0.00,965,weatherlink.com 1.10,2013-05-14 17:16:00,
2013-05-14 13:31:00,80.1,60.0,30.16,ENE,57,10.0,-999.0,51,-99.99,,,0.00,947,weatherlink.com 1.10,2013-05-14 17:31:00,
2013-05-14 13:46:00,81.0,61.0,30.15,NE,36,9.0,-999.0,51,-99.99,,,0.00,940,weatherlink.com 1.10,2013-05-14 17:46:00,
2013-05-14 14:01:00,80.3,62.0,30.15,East,92,2.0,-999.0,53,-99.99,,,0.00,1037,weatherlink.com 1.10,2013-05-14 18:01:00,
2013-05-14 14:16:00,81.4,60.0,30.15,NE,47,5.0,-999.0,49,-99.99,,,0.00,951,weatherlink.com 1.10,2013-05-14 18:16:00,
2013-05-14 14:31:00,80.9,61.0,30.14,NE,47,8.0,-999.0,51,-99.99,,,0.00,932,weatherlink.com 1.10,2013-05-14 18:31:00,
2013-05-14 14:46:00,80.9,60.0,30.14,North,355,4.0,-999.0,50,-99.99,,,0.00,911,weatherlink.com 1.10,2013-05-14 18:46:00,
2013-05-14 15:01:00,80.1,62.0,30.14,NE,35,0.0,-999.0,54,-99.99,,,0.00,969,weatherlink.com 1.10,2013-05-14 19:01:00,
2013-05-14 15:16:00,80.0,61.0,30.13,NE,56,5.0,-999.0,53,-99.99,,,0.00,861,weatherlink.com 1.10,2013-05-14 19:16:00,
2013-05-14 15:31:00,80.5,60.0,30.13,ENE,71,10.0,-999.0,50,-99.99,,,0.00,828,weatherlink.com 1.10,2013-05-14 19:31:00,
2013-05-14 15:46:00,79.9,61.0,30.13,NNE,15,6.0,-999.0,52,-99.99,,,0.00,800,weatherlink.com 1.10,2013-05-14 19:46:00,
2013-05-14 16:01:00,79.4,61.0,30.12,ENE,64,6.0,-999.0,53,-99.99,,,0.00,777,weatherlink.com 1.10,2013-05-14 20:01:00,
2013-05-14 16:16:00,79.5,61.0,30.12,East,84,7.0,-999.0,53,-99.99,,,0.00,183,weatherlink.com 1.10,2013-05-14 20:16:00,
2013-05-14 16:31:00,79.6,61.0,30.12,ENE,65,5.0,-999.0,53,-99.99,,,0.00,729,weatherlink.com 1.10,2013-05-14 20:31:00,
2013-05-14 16:46:00,79.3,61.0,30.12,East,92,6.0,-999.0,53,-99.99,,,0.00,650,weatherlink.com 1.10,2013-05-14 20:46:00,
2013-05-14 17:01:00,79.6,62.0,30.12,ENE,63,6.0,-999.0,55,-99.99,,,0.00,613,weatherlink.com 1.10,2013-05-14 21:01:00,
2013-05-14 17:16:00,78.8,61.0,30.12,ENE,72,6.0,-999.0,54,-99.99,,,0.00,113,weatherlink.com 1.10,2013-05-14 21:16:00,
2013-05-14 17:31:00,78.1,61.0,30.12,ENE,76,3.0,-999.0,55,-99.99,,,0.00,508,weatherlink.com 1.10,2013-05-14 21:31:00,
2013-05-14 17:46:00,78.2,61.0,30.12,NE,47,6.0,-999.0,55,-99.99,,,0.00,473,weatherlink.com 1.10,2013-05-14 21:46:00,
2013-05-14 18:01:00,77.7,58.0,30.12,NNE,30,13.0,-999.0,51,-99.99,,,0.00,306,weatherlink.com 1.10,2013-05-14 22:01:00,
2013-05-14 20:10:00,75.5,60.0,30.12,NE,44,1.0,-999.0,58,-99.99,,,0.00,0,weatherlink.com 1.10,2013-05-15 00:10:00,
2013-05-14 20:17:00,75.3,59.0,30.12,East,90,5.0,-999.0,58,-99.99,,,0.00,0,weatherlink.com 1.10,2013-05-15 00:17:00,
2013-05-14 20:32:00,75.1,58.0,30.13,NE,55,6.0,-999.0,56,-99.99,,,0.00,0,weatherlink.com 1.10,2013-05-15 00:32:00,
2013-05-14 20:47:00,75.0,58.0,30.14,NE,51,11.0,-999.0,56,-99.99,,,0.00,0,weatherlink.com 1.10,2013-05-15 00:47:00,
2013-05-14 21:02:00,74.9,58.0,30.14,ENE,59,5.0,-999.0,56,-99.99,,,0.00,0,weatherlink.com 1.10,2013-05-15 01:02:00,
2013-05-14 21:17:00,74.8,58.0,30.14,NE,54,6.0,-999.0,56,-99.99,,,0.00,0,weatherlink.com 1.10,2013-05-15 01:17:00,
2013-05-14 21:32:00,74.8,57.0,30.14,ENE,67,4.0,-999.0,55,-99.99,,,0.00,0,weatherlink.com 1.10,2013-05-15 01:32:00,
2013-05-14 21:47:00,74.8,58.0,30.14,ENE,60,1.0,-999.0,57,-99.99,,,0.00,0,weatherlink.com 1.10,2013-05-15 01:47:00,
2013-05-14 22:02:00,74.7,59.0,30.15,NE,55,0.0,-999.0,58,-99.99,,,0.00,0,weatherlink.com 1.10,2013-05-15 02:02:00,
2013-05-14 22:17:00,74.7,59.0,30.16,NE,53,5.0,-999.0,58,-99.99,,,0.00,0,weatherlink.com 1.10,2013-05-15 02:17:00,
2013-05-14 22:32:00,74.9,60.0,30.16,NNE,27,0.0,-999.0,60,-99.99,,,0.00,0,weatherlink.com 1.10,2013-05-15 02:32:00,
2013-05-14 22:47:00,75.1,60.0,30.16,ENE,57,4.0,-999.0,59,-99.99,,,0.00,0,weatherlink.com 1.10,2013-05-15 02:47:00,
2013-05-14 23:02:00,75.2,60.0,30.16,NE,53,6.0,-999.0,60,-99.99,,,0.00,0,weatherlink.com 1.10,2013-05-15 03:02:00,
2013-05-14 23:17:00,75.1,60.0,30.16,ENE,59,5.0,-999.0,59,-99.99,,,0.00,0,weatherlink.com 1.10,2013-05-15 03:17:00,
2013-05-14 23:32:00,74.9,59.0,30.16,NE,39,2.0,-999.0,58,-99.99,,,0.00,0,weatherlink.com 1.10,2013-05-15 03:32:00,
2013-05-14 23:47:00,74.7,59.0,30.16,NE,42,1.0,-999.0,58,-99.99,,,0.00,0,weatherlink.com 1.10,2013-05-15 03:47:00,